Overview Statistics Trail Chart Weather Telemetry Raw packets
 

This is the latest recevied weather packets stored in our database for station/object SP9MUF-14. If no packets are shown the sender has not sent any weather packets the latest 10 day(s).

<< 20 21 22 23 24 25 26 >>
Time Temp. Humidity Pressure Rain* Wind** Luminosity Snow
1788107533 27.78° C 40% 1013.6 hPa 0 mm - 40 W/m² -
1788107231 26.67° C 44% 1013.6 hPa 0 mm - 38 W/m² -
1788106929 26.67° C 42% 1013.5 hPa 0 mm - 24 W/m² -
1788106627 27.78° C 42% 1013.5 hPa 0 mm - 35 W/m² -
1788106325 27.78° C 39% 1013.6 hPa 0 mm - 32 W/m² -
1788105115 28.89° C 37% 1013.5 hPa 0 mm - 80 W/m² -
1788104507 28.89° C 37% 1013.5 hPa 0 mm - 86 W/m² -
1788104205 28.89° C 38% 1013.5 hPa 0 mm - 91 W/m² -
1788103902 28.89° C 37% 1013.5 hPa 0 mm - 97 W/m² -
1788103600 28.89° C 37% 1013.6 hPa 0 mm - 105 W/m² -
1788103298 28.89° C 36% 1013.7 hPa 0 mm - 113 W/m² -
1788103000 27.78° C 38% 1013.7 hPa 0 mm - 124 W/m² -
1788102694 30° C 37% 1013.5 hPa 0 mm - 135 W/m² -
1788102392 28.89° C 36% 1013.6 hPa 0 mm - 146 W/m² -
1788102090 27.78° C 35% 1013.8 hPa 0 mm - 156 W/m² -
1788101788 27.78° C 38% 1013.8 hPa 0 mm - 171 W/m² -
1788100894 27.78° C 37% 1013.8 hPa 0 mm - 214 W/m² -
1788100277 27.78° C 37% 1013.8 hPa 0 mm - 241 W/m² -
1788099975 27.78° C 37% 1014 hPa 0 mm - 251 W/m² -
1788099673 28.89° C 37% 1013.9 hPa 0 mm - 264 W/m² -
1788099068 28.89° C 35% 1013.9 hPa 0 mm - 297 W/m² -
1788098774 28.89° C 36% 1014 hPa 0 mm - 306 W/m² -
1788098464 30° C 34% 1013.9 hPa 0 mm - 320 W/m² -
1788098162 30° C 35% 1014.2 hPa 0 mm - 333 W/m² -
1788097860 28.89° C 35% 1014.1 hPa 0 mm - 344 W/m² -

* Rain latest hour (hover to see other rain measurements)
** Current wind speed in m/s (hover to see current wind gust speed)